sat.trackr.live / text

‹ back to catalog

STARLINK-31567

NORAD 59199 · 2024-045X

PAYLOAD ACTIVE UNKNOWN

§ Identity

Operator
Country
US
Launch date
2024-03-10
Launch site
AFETR
Launch vehicle
Mass (kg)
RCS (m²)

Purposes: comms

External: N2YO · Heavens-Above · Gunter

§ Orbital elements

Epoch: 2026-09-19T18:14:11.923008Z

Period
94.27 min
Inclination
43.0015°
Eccentricity
0.0001255
Mean motion
15.27581321 rev/d
Perigee alt
482.2 km
Apogee alt
483.9 km
Semi-major
6,861.2 km
B*
3.8376e-5
RAAN
76.3802°
Arg perigee
260.2860°
Mean anomaly
99.7850°
Rev number
14,284

§ Raw data

STARLINK-315671 59199U 24045X   26262.75986022  .00000794  00000+0  38376-4 0  99952 59199  43.0015  76.3802 0001255 260.2860  99.7850 15.27581321142843

JSON: /api/v1/satellites/59199 · /tle

For live sub-satellite position, see the globe view (requires WebGL).

§ Visibility from observer

Set your observer location to see the next 7 days of passes ≥ 10°. The values pass through the URL so the page stays shareable.

No JS? Fill the form by hand. The geolocation button needs JavaScript.